Datum;Richtung;Anzahl Messungen;Anzahl Fahrzeuge;Durchschnittsgeschwindigkeit;Höchstgeschwindigkeit
03/03/2020 16:00;1;43;43;22.14;36.00
03/03/2020 16:30;1;55;55;24.22;39.00
03/03/2020 17:00;1;65;65;22.83;38.00
03/03/2020 17:30;1;58;58;23.81;36.00
03/03/2020 18:00;1;46;46;23.13;37.00
03/03/2020 18:30;1;47;47;23.36;40.00
03/03/2020 19:00;1;34;34;25.68;42.00
03/03/2020 19:30;1;36;36;22.53;35.00
03/03/2020 20:00;1;43;43;23.42;39.00
03/03/2020 20:30;1;23;23;24.43;44.00
03/03/2020 21:00;1;29;29;25.03;36.00
03/03/2020 21:30;1;48;48;26.40;46.00
03/03/2020 22:00;1;33;33;27.15;44.00
03/03/2020 22:30;1;26;26;26.31;39.00
03/03/2020 23:00;1;18;18;29.11;45.00
03/03/2020 23:30;1;14;14;26.86;46.00
04/03/2020 00:00;1;11;11;26.73;46.00
04/03/2020 00:30;1;8;8;29.38;42.00
04/03/2020 01:00;1;4;4;27.00;34.00
04/03/2020 01:30;1;4;4;30.75;36.00
04/03/2020 02:00;1;4;4;29.25;41.00
04/03/2020 02:30;1;2;2;28.00;33.00
04/03/2020 03:00;1;5;5;27.60;41.00
04/03/2020 03:30;1;1;1;30.00;30.00
04/03/2020 04:00;1;5;5;29.00;39.00
04/03/2020 04:30;1;8;8;26.62;38.00
04/03/2020 05:00;1;14;14;23.43;37.00
04/03/2020 05:30;1;22;22;28.95;40.00
04/03/2020 06:00;1;34;34;24.06;35.00
04/03/2020 06:30;1;28;28;23.36;37.00
04/03/2020 07:00;1;30;30;24.20;34.00
04/03/2020 07:30;1;27;27;21.52;34.00
04/03/2020 08:00;1;27;27;24.00;35.00
04/03/2020 08:30;1;28;28;23.00;31.00
04/03/2020 09:00;1;26;26;22.77;30.00
04/03/2020 09:30;1;32;32;24.94;39.00
04/03/2020 10:00;1;51;51;25.92;43.00
04/03/2020 10:30;1;36;36;21.69;33.00
04/03/2020 11:00;1;34;34;23.59;39.00
04/03/2020 11:30;1;50;50;23.84;41.00
04/03/2020 12:00;1;55;55;22.33;35.00
04/03/2020 12:30;1;38;38;23.16;41.00
04/03/2020 13:00;1;39;39;21.72;36.00
04/03/2020 13:30;1;51;51;23.73;33.00
04/03/2020 14:00;1;42;42;23.14;34.00
04/03/2020 14:30;1;42;42;22.05;35.00
04/03/2020 15:00;1;43;43;22.44;36.00
04/03/2020 15:30;1;46;46;23.54;35.00
04/03/2020 16:00;1;57;57;22.89;35.00
04/03/2020 16:30;1;52;52;23.27;37.00
04/03/2020 17:00;1;55;55;23.60;37.00
04/03/2020 17:30;1;84;84;23.36;46.00
04/03/2020 18:00;1;73;73;24.00;34.00
04/03/2020 18:30;1;64;64;24.36;58.00
04/03/2020 19:00;1;40;40;23.93;36.00
04/03/2020 19:30;1;37;37;23.32;34.00
04/03/2020 20:00;1;41;41;23.90;46.00
04/03/2020 20:30;1;31;31;25.77;53.00
04/03/2020 21:00;1;41;41;25.05;39.00
04/03/2020 21:30;1;40;40;26.12;44.00
04/03/2020 22:00;1;24;24;25.29;41.00
04/03/2020 22:30;1;23;23;27.00;40.00
04/03/2020 23:00;1;24;24;26.71;44.00
04/03/2020 23:30;1;16;16;23.38;40.00
05/03/2020 00:00;1;10;10;25.60;37.00
05/03/2020 00:30;1;6;6;23.67;29.00
05/03/2020 01:00;1;1;1;21.00;21.00
05/03/2020 01:30;1;5;5;30.20;42.00
05/03/2020 02:00;1;3;3;29.33;42.00
05/03/2020 02:30;1;2;2;16.00;16.00
05/03/2020 03:00;1;2;2;21.00;21.00
05/03/2020 03:30;1;2;2;29.00;32.00
05/03/2020 04:00;1;4;4;22.25;30.00
05/03/2020 04:30;1;11;11;27.00;42.00
05/03/2020 05:00;1;14;14;22.43;33.00
05/03/2020 05:30;1;19;19;25.21;42.00
05/03/2020 06:00;1;30;30;23.17;42.00
05/03/2020 06:30;1;19;19;24.58;31.00
05/03/2020 07:00;1;26;26;22.08;34.00
05/03/2020 07:30;1;24;24;21.38;30.00
05/03/2020 08:00;1;28;28;23.68;32.00
05/03/2020 08:30;1;25;25;22.28;31.00
05/03/2020 09:00;1;23;23;22.22;31.00
05/03/2020 09:30;1;34;34;24.88;39.00
05/03/2020 10:00;1;27;27;24.56;34.00
05/03/2020 10:30;1;24;24;24.54;35.00
05/03/2020 11:00;1;42;42;22.52;33.00
05/03/2020 11:30;1;35;35;21.63;31.00
05/03/2020 12:00;1;39;39;22.87;34.00
05/03/2020 12:30;1;34;34;25.82;37.00
05/03/2020 13:00;1;35;35;22.51;38.00
05/03/2020 13:30;1;28;28;23.18;34.00
05/03/2020 14:00;1;35;35;25.40;41.00
05/03/2020 14:30;1;36;36;24.17;37.00
05/03/2020 15:00;1;18;18;21.44;35.00
05/03/2020 15:30;1;40;40;22.00;34.00
05/03/2020 16:00;1;55;55;23.47;40.00
05/03/2020 16:30;1;55;55;23.93;36.00
05/03/2020 17:00;1;60;60;23.42;38.00
05/03/2020 17:30;1;67;67;23.16;41.00
05/03/2020 18:00;1;53;53;24.94;45.00
05/03/2020 18:30;1;62;62;23.52;41.00
05/03/2020 19:00;1;46;46;23.98;38.00
05/03/2020 19:30;1;39;39;25.36;38.00
05/03/2020 20:00;1;33;33;22.33;34.00
05/03/2020 20:30;1;19;19;22.00;32.00
05/03/2020 21:00;1;31;31;24.42;42.00
05/03/2020 21:30;1;37;37;25.00;36.00
05/03/2020 22:00;1;27;27;23.07;32.00
05/03/2020 22:30;1;18;18;26.39;42.00
05/03/2020 23:00;1;12;12;27.42;42.00
05/03/2020 23:30;1;14;14;23.29;38.00
06/03/2020 00:00;1;11;11;22.09;39.00
06/03/2020 00:30;1;4;4;25.00;32.00
06/03/2020 01:00;1;3;3;29.67;33.00
06/03/2020 01:30;1;2;2;34.00;44.00
06/03/2020 02:00;1;3;3;27.67;38.00
06/03/2020 02:30;1;1;1;35.00;35.00
06/03/2020 03:00;1;5;5;22.60;30.00
06/03/2020 03:30;1;1;1;32.00;32.00
06/03/2020 04:00;1;3;3;22.67;28.00
06/03/2020 04:30;1;7;7;24.14;34.00
06/03/2020 05:00;1;17;17;26.29;43.00
06/03/2020 05:30;1;26;26;26.54;37.00
06/03/2020 06:00;1;41;41;23.46;39.00
06/03/2020 06:30;1;28;28;22.75;37.00
06/03/2020 07:00;1;22;22;22.09;37.00
06/03/2020 07:30;1;22;22;20.50;32.00
06/03/2020 08:00;1;29;29;23.86;54.00
06/03/2020 08:30;1;25;25;22.76;35.00
06/03/2020 09:00;1;26;26;22.92;37.00
06/03/2020 09:30;1;41;41;23.54;35.00
06/03/2020 10:00;1;48;48;22.69;35.00
06/03/2020 10:30;1;35;35;24.40;45.00
06/03/2020 11:00;1;44;44;24.43;41.00
06/03/2020 11:30;1;42;42;23.29;37.00
06/03/2020 12:00;1;38;38;23.95;39.00
06/03/2020 12:30;1;43;43;23.21;39.00
06/03/2020 13:00;1;41;41;20.73;31.00
06/03/2020 13:30;1;59;59;22.68;37.00
06/03/2020 14:00;1;57;57;24.88;38.00
06/03/2020 14:30;1;55;55;24.53;42.00
06/03/2020 15:00;1;58;58;25.26;43.00
06/03/2020 15:30;1;75;75;24.01;36.00
06/03/2020 16:00;1;75;75;23.85;45.00
06/03/2020 16:30;1;62;62;24.35;43.00
06/03/2020 17:00;1;74;74;24.00;38.00
06/03/2020 17:30;1;61;61;24.92;42.00
06/03/2020 18:00;1;58;58;24.53;46.00
06/03/2020 18:30;1;41;41;23.71;39.00
06/03/2020 19:00;1;41;41;25.41;41.00
06/03/2020 19:30;1;41;41;24.41;40.00
06/03/2020 20:00;1;31;31;21.48;37.00
06/03/2020 20:30;1;28;28;22.64;36.00
06/03/2020 21:00;1;39;39;26.82;53.00
06/03/2020 21:30;1;35;35;25.74;40.00
06/03/2020 22:00;1;37;37;25.95;49.00
06/03/2020 22:30;1;32;32;24.88;36.00
06/03/2020 23:00;1;33;33;27.67;56.00
06/03/2020 23:30;1;15;15;25.07;33.00
07/03/2020 00:00;1;22;22;24.64;34.00
07/03/2020 00:30;1;14;14;28.14;63.00
07/03/2020 01:00;1;18;18;27.00;45.00
07/03/2020 01:30;1;13;13;28.23;45.00
07/03/2020 02:00;1;8;8;29.62;40.00
07/03/2020 02:30;1;6;6;35.33;44.00
07/03/2020 03:00;1;6;6;26.50;31.00
07/03/2020 03:30;1;4;4;22.75;26.00
07/03/2020 04:00;1;3;3;27.00;35.00
07/03/2020 04:30;1;11;11;22.00;30.00
07/03/2020 05:00;1;12;12;23.08;37.00
07/03/2020 05:30;1;7;7;23.71;30.00
07/03/2020 06:00;1;21;21;22.71;39.00
07/03/2020 06:30;1;10;10;25.20;31.00
07/03/2020 07:00;1;12;12;23.50;37.00
07/03/2020 07:30;1;25;25;23.08;38.00
07/03/2020 08:00;1;24;24;25.75;39.00
07/03/2020 08:30;1;29;29;23.69;31.00
07/03/2020 09:00;1;52;52;24.71;35.00
07/03/2020 09:30;1;45;45;23.11;36.00
07/03/2020 10:00;1;48;48;26.29;38.00
07/03/2020 10:30;1;49;49;24.18;40.00
07/03/2020 11:00;1;73;73;23.99;42.00
07/03/2020 11:30;1;62;62;22.90;36.00
07/03/2020 12:00;1;67;67;25.48;47.00
07/03/2020 12:30;1;61;61;23.74;41.00
07/03/2020 13:00;1;69;69;25.32;45.00
07/03/2020 13:30;1;53;53;25.91;46.00
07/03/2020 14:00;1;71;71;23.82;50.00
07/03/2020 14:30;1;60;60;23.90;40.00
07/03/2020 15:00;1;42;42;22.88;38.00
07/03/2020 15:30;1;43;43;24.40;44.00
07/03/2020 16:00;1;54;54;24.87;41.00
07/03/2020 16:30;1;69;69;23.67;36.00
07/03/2020 17:00;1;49;49;24.37;49.00
07/03/2020 17:30;1;43;43;23.84;34.00
07/03/2020 18:00;1;45;45;24.27;38.00
07/03/2020 18:30;1;44;44;22.64;38.00
07/03/2020 19:00;1;30;30;22.53;37.00
07/03/2020 19:30;1;31;31;23.81;36.00
07/03/2020 20:00;1;24;24;24.21;35.00
07/03/2020 20:30;1;25;25;24.80;43.00
07/03/2020 21:00;1;35;35;26.66;36.00
07/03/2020 21:30;1;32;32;26.38;49.00
07/03/2020 22:00;1;37;37;24.46;37.00
07/03/2020 22:30;1;33;33;24.82;36.00
07/03/2020 23:00;1;24;24;26.17;43.00
07/03/2020 23:30;1;28;28;27.04;41.00
08/03/2020 00:00;1;28;28;28.29;46.00
08/03/2020 00:30;1;13;13;28.69;46.00
08/03/2020 01:00;1;17;17;24.41;34.00
08/03/2020 01:30;1;10;10;26.60;38.00
08/03/2020 02:00;1;9;9;28.89;45.00
08/03/2020 02:30;1;9;9;31.11;49.00
08/03/2020 03:00;1;11;11;31.00;43.00
08/03/2020 03:30;1;8;8;30.62;43.00
08/03/2020 04:00;1;12;12;33.42;56.00
08/03/2020 04:30;1;6;6;26.33;33.00
08/03/2020 05:00;1;11;11;29.18;39.00
08/03/2020 05:30;1;3;3;34.00;48.00
08/03/2020 06:00;1;7;7;28.00;41.00
08/03/2020 06:30;1;7;7;27.71;37.00
08/03/2020 07:00;1;2;2;28.00;34.00
08/03/2020 07:30;1;13;13;26.31;41.00
08/03/2020 08:00;1;13;13;23.31;32.00
08/03/2020 08:30;1;19;19;22.79;32.00
08/03/2020 09:00;1;25;25;26.52;40.00
08/03/2020 09:30;1;37;37;26.86;48.00
08/03/2020 10:00;1;28;28;27.43;49.00
08/03/2020 10:30;1;37;37;24.03;37.00
08/03/2020 11:00;1;37;37;25.14;38.00
08/03/2020 11:30;1;42;42;23.29;39.00
08/03/2020 12:00;1;31;31;24.55;37.00
08/03/2020 12:30;1;47;47;23.89;41.00
08/03/2020 13:00;1;44;44;24.77;43.00
08/03/2020 13:30;1;40;40;24.43;41.00
08/03/2020 14:00;1;40;40;24.82;38.00
08/03/2020 14:30;1;35;35;24.71;43.00
08/03/2020 15:00;1;44;44;25.41;40.00
08/03/2020 15:30;1;31;31;27.19;40.00
08/03/2020 16:00;1;38;38;24.34;35.00
08/03/2020 16:30;1;29;29;24.17;36.00
08/03/2020 17:00;1;38;38;23.92;41.00
08/03/2020 17:30;1;30;30;23.97;36.00
08/03/2020 18:00;1;27;27;24.41;35.00
08/03/2020 18:30;1;43;43;23.72;36.00
08/03/2020 19:00;1;27;27;25.30;42.00
08/03/2020 19:30;1;31;31;25.74;51.00
08/03/2020 20:00;1;24;24;24.83;40.00
08/03/2020 20:30;1;30;30;22.43;39.00
08/03/2020 21:00;1;37;37;26.86;58.00
08/03/2020 21:30;1;36;36;25.50;40.00
08/03/2020 22:00;1;18;18;28.89;60.00
08/03/2020 22:30;1;16;16;26.62;33.00
08/03/2020 23:00;1;10;10;25.40;38.00
08/03/2020 23:30;1;15;15;23.67;31.00
09/03/2020 00:00;1;8;8;33.12;42.00
09/03/2020 00:30;1;6;6;27.67;34.00
09/03/2020 01:00;1;3;3;24.33;29.00
09/03/2020 01:30;1;4;4;28.00;34.00
09/03/2020 02:00;1;5;5;23.80;32.00
09/03/2020 02:30;1;5;5;26.00;32.00
09/03/2020 03:00;1;3;3;23.67;32.00
09/03/2020 03:30;1;1;1;21.00;21.00
09/03/2020 04:00;1;3;3;19.33;21.00
09/03/2020 04:30;1;12;12;23.17;31.00
09/03/2020 05:00;1;12;12;26.67;42.00
09/03/2020 05:30;1;12;12;25.83;43.00
09/03/2020 06:00;1;39;39;23.82;35.00
09/03/2020 06:30;1;26;26;25.42;44.00
09/03/2020 07:00;1;29;29;22.52;33.00
09/03/2020 07:30;1;23;23;19.91;26.00
09/03/2020 08:00;1;34;34;22.26;31.00
09/03/2020 08:30;1;29;29;22.48;37.00
09/03/2020 09:00;1;28;28;21.64;36.00
09/03/2020 09:30;1;31;31;22.65;36.00
09/03/2020 10:00;1;35;35;23.74;35.00
09/03/2020 10:30;1;42;42;23.36;39.00
09/03/2020 11:00;1;40;40;23.50;36.00
09/03/2020 11:30;1;53;53;22.28;43.00
09/03/2020 12:00;1;42;42;22.40;37.00
09/03/2020 12:30;1;41;41;23.59;38.00
09/03/2020 13:00;1;57;57;21.79;36.00
09/03/2020 13:30;1;37;37;23.00;36.00
09/03/2020 14:00;1;55;55;24.04;40.00
09/03/2020 14:30;1;41;41;24.73;42.00
09/03/2020 15:00;1;36;36;23.08;39.00
09/03/2020 15:30;1;43;43;22.86;33.00
09/03/2020 16:00;1;61;61;23.79;38.00
09/03/2020 16:30;1;54;54;22.43;37.00
09/03/2020 17:00;1;53;53;22.36;33.00
09/03/2020 17:30;1;55;55;22.07;35.00
09/03/2020 18:00;1;56;56;22.61;34.00
09/03/2020 18:30;1;48;48;24.31;38.00
09/03/2020 19:00;1;44;44;24.00;36.00
09/03/2020 19:30;1;38;38;23.76;35.00
09/03/2020 20:00;1;39;39;23.56;38.00
09/03/2020 20:30;1;29;29;26.45;46.00
09/03/2020 21:00;1;28;28;26.79;43.00
09/03/2020 21:30;1;51;51;24.55;44.00
09/03/2020 22:00;1;26;26;26.42;45.00
09/03/2020 22:30;1;23;23;24.61;37.00
09/03/2020 23:00;1;19;19;24.84;38.00
09/03/2020 23:30;1;16;16;24.19;39.00
10/03/2020 00:00;1;9;9;28.11;41.00
10/03/2020 00:30;1;4;4;23.75;25.00
10/03/2020 01:00;1;9;9;31.78;40.00
10/03/2020 01:30;1;5;5;24.40;36.00
10/03/2020 02:30;1;4;4;28.00;32.00
10/03/2020 03:00;1;6;6;22.83;41.00
10/03/2020 03:30;1;2;2;34.50;43.00
10/03/2020 04:00;1;4;4;21.25;26.00
10/03/2020 04:30;1;8;8;24.38;33.00
10/03/2020 05:00;1;24;24;25.21;47.00
10/03/2020 05:30;1;22;22;26.27;42.00
10/03/2020 06:00;1;43;43;24.77;41.00
10/03/2020 06:30;1;37;37;22.92;35.00
10/03/2020 07:00;1;35;35;22.91;38.00
10/03/2020 07:30;1;34;34;21.44;38.00
10/03/2020 08:00;1;26;26;22.46;36.00
10/03/2020 08:30;1;34;34;23.41;38.00
10/03/2020 09:00;1;37;37;23.95;39.00
10/03/2020 09:30;1;35;35;22.14;34.00
10/03/2020 10:00;1;50;50;22.66;35.00
10/03/2020 10:30;1;46;46;23.13;42.00
10/03/2020 11:00;1;28;28;23.25;39.00
10/03/2020 11:30;1;35;35;23.14;40.00
10/03/2020 12:00;1;36;36;21.86;33.00
10/03/2020 12:30;1;58;58;24.41;36.00
10/03/2020 13:00;1;38;38;22.63;36.00
10/03/2020 13:30;1;34;34;22.53;35.00
10/03/2020 14:00;1;42;42;23.31;35.00
10/03/2020 14:30;1;33;33;23.94;39.00
10/03/2020 15:00;1;39;39;23.62;36.00
10/03/2020 15:30;1;56;56;23.34;39.00
10/03/2020 16:00;1;53;53;23.94;37.00
10/03/2020 16:30;1;55;55;22.78;34.00
10/03/2020 17:00;1;60;60;22.32;41.00
10/03/2020 17:30;1;57;57;23.37;39.00
10/03/2020 18:00;1;60;60;23.02;35.00
10/03/2020 18:30;1;39;39;22.59;33.00
10/03/2020 19:00;1;33;33;22.85;32.00
10/03/2020 19:30;1;37;37;24.05;39.00
10/03/2020 20:00;1;34;34;23.79;34.00
10/03/2020 20:30;1;23;23;24.35;39.00
10/03/2020 21:00;1;53;53;25.79;42.00
10/03/2020 21:30;1;42;42;25.57;49.00
10/03/2020 22:00;1;22;22;27.09;43.00
10/03/2020 22:30;1;18;18;23.72;38.00
10/03/2020 23:00;1;15;15;27.67;39.00
10/03/2020 23:30;1;17;17;26.35;43.00
11/03/2020 00:00;1;5;5;24.20;28.00
11/03/2020 00:30;1;5;5;27.80;43.00
11/03/2020 01:00;1;5;5;24.20;30.00
11/03/2020 01:30;1;4;4;23.25;24.00
11/03/2020 02:00;1;1;1;32.00;32.00
11/03/2020 02:30;1;3;3;25.33;33.00
11/03/2020 03:00;1;4;4;22.75;37.00
11/03/2020 03:30;1;1;1;25.00;25.00
11/03/2020 04:00;1;4;4;19.00;23.00
11/03/2020 04:30;1;7;7;25.00;33.00
11/03/2020 05:00;1;15;15;25.53;36.00
11/03/2020 05:30;1;29;29;27.66;44.00
11/03/2020 06:00;1;39;39;25.87;44.00
11/03/2020 06:30;1;30;30;23.47;35.00
11/03/2020 07:00;1;29;29;24.00;33.00
11/03/2020 07:30;1;36;36;20.72;38.00
11/03/2020 08:00;1;30;30;23.17;39.00
11/03/2020 08:30;1;29;29;25.00;39.00
11/03/2020 09:00;1;44;44;25.23;37.00
11/03/2020 09:30;1;40;40;21.93;36.00
11/03/2020 10:00;1;39;39;23.85;40.00
11/03/2020 10:30;1;39;39;23.97;36.00
11/03/2020 11:00;1;40;40;23.30;38.00
11/03/2020 11:30;1;37;37;26.35;49.00
11/03/2020 12:00;1;54;54;22.89;35.00
11/03/2020 12:30;1;34;34;23.74;34.00
11/03/2020 13:00;1;37;37;22.03;33.00
11/03/2020 13:30;1;38;38;24.13;43.00
11/03/2020 14:00;1;53;53;23.13;42.00
11/03/2020 14:30;1;40;40;24.77;40.00
11/03/2020 15:00;1;30;30;23.17;34.00
11/03/2020 15:30;1;43;43;25.67;40.00
11/03/2020 16:00;1;63;63;23.94;38.00
11/03/2020 16:30;1;75;75;23.01;34.00
11/03/2020 17:00;1;72;72;23.43;41.00
11/03/2020 17:30;1;42;42;24.38;34.00
11/03/2020 18:00;1;55;55;24.87;43.00
11/03/2020 18:30;1;60;60;23.50;34.00
11/03/2020 19:00;1;40;40;24.02;38.00
11/03/2020 19:30;1;39;39;23.79;41.00
11/03/2020 20:00;1;41;41;24.00;43.00
11/03/2020 20:30;1;35;35;24.31;34.00
11/03/2020 21:00;1;46;46;26.37;43.00
11/03/2020 21:30;1;49;49;24.37;39.00
11/03/2020 22:00;1;27;27;25.56;41.00
11/03/2020 22:30;1;28;28;26.64;45.00
11/03/2020 23:00;1;9;9;22.00;32.00
11/03/2020 23:30;1;12;12;27.50;34.00
12/03/2020 00:00;1;5;5;26.60;35.00
12/03/2020 00:30;1;5;5;26.20;29.00
12/03/2020 01:00;1;5;5;24.80;34.00
12/03/2020 01:30;1;2;2;18.50;20.00
12/03/2020 02:00;1;3;3;26.33;31.00
12/03/2020 02:30;1;1;1;28.00;28.00
12/03/2020 03:00;1;3;3;30.00;35.00
12/03/2020 03:30;1;3;3;25.00;37.00
12/03/2020 04:00;1;9;9;23.00;33.00
12/03/2020 04:30;1;4;4;30.75;41.00
12/03/2020 05:00;1;13;13;26.00;44.00
12/03/2020 05:30;1;29;29;24.03;37.00
12/03/2020 06:00;1;41;41;25.12;42.00
12/03/2020 06:30;1;22;22;22.95;41.00
12/03/2020 07:00;1;24;24;21.29;35.00
12/03/2020 07:30;1;22;22;21.05;31.00
12/03/2020 08:00;1;27;27;23.70;39.00
12/03/2020 08:30;1;35;35;23.69;33.00
12/03/2020 09:00;1;36;36;23.61;36.00
12/03/2020 09:30;1;43;43;24.47;40.00
12/03/2020 10:00;1;32;32;24.28;32.00
12/03/2020 10:30;1;46;46;21.89;30.00
12/03/2020 11:00;1;44;44;22.93;33.00
12/03/2020 11:30;1;50;50;23.44;34.00
12/03/2020 12:00;1;42;42;21.69;43.00
12/03/2020 12:30;1;42;42;24.90;45.00
12/03/2020 13:00;1;38;38;23.03;41.00
12/03/2020 13:30;1;37;37;23.57;33.00
12/03/2020 14:00;1;41;41;24.59;40.00
12/03/2020 14:30;1;36;36;23.56;36.00
12/03/2020 15:00;1;38;38;23.50;36.00
12/03/2020 15:30;1;57;57;23.47;36.00
12/03/2020 16:00;1;61;61;23.54;37.00
12/03/2020 16:30;1;60;60;24.63;51.00
12/03/2020 17:00;1;62;62;23.29;38.00
12/03/2020 17:30;1;72;72;24.25;43.00
12/03/2020 18:00;1;73;73;24.51;40.00
12/03/2020 18:30;1;72;72;24.82;40.00
12/03/2020 19:00;1;50;50;23.76;37.00
12/03/2020 19:30;1;31;31;23.55;46.00
12/03/2020 20:00;1;39;39;23.59;39.00
12/03/2020 20:30;1;26;26;24.50;43.00
12/03/2020 21:00;1;31;31;25.35;38.00
12/03/2020 21:30;1;46;46;24.63;40.00
12/03/2020 22:00;1;28;28;24.18;35.00
12/03/2020 22:30;1;25;25;25.12;39.00
12/03/2020 23:00;1;14;14;24.93;32.00
12/03/2020 23:30;1;10;10;22.10;37.00
13/03/2020 00:00;1;13;13;26.08;37.00
13/03/2020 00:30;1;7;7;23.14;28.00
13/03/2020 01:00;1;4;4;24.00;31.00
13/03/2020 01:30;1;5;5;24.40;33.00
13/03/2020 02:00;1;2;2;30.00;33.00
13/03/2020 02:30;1;4;4;31.50;38.00
13/03/2020 03:00;1;1;1;23.00;23.00
13/03/2020 03:30;1;3;3;25.33;29.00
13/03/2020 04:00;1;7;7;24.57;34.00
13/03/2020 04:30;1;15;15;28.47;43.00
13/03/2020 05:00;1;13;13;23.77;44.00
13/03/2020 05:30;1;27;27;26.26;42.00
13/03/2020 06:00;1;40;40;23.65;40.00
13/03/2020 06:30;1;27;27;24.22;41.00
13/03/2020 07:00;1;25;25;21.24;31.00
13/03/2020 07:30;1;27;27;21.67;35.00
13/03/2020 08:00;1;34;34;21.97;31.00
13/03/2020 08:30;1;31;31;22.84;37.00
13/03/2020 09:00;1;43;43;23.07;38.00
13/03/2020 09:30;1;39;39;22.67;35.00
13/03/2020 10:00;1;37;37;24.46;43.00
13/03/2020 10:30;1;35;35;26.40;41.00
13/03/2020 11:00;1;46;46;22.17;36.00
13/03/2020 11:30;1;53;53;23.00;35.00
13/03/2020 12:00;1;43;43;24.28;35.00
13/03/2020 12:30;1;43;43;23.86;34.00
13/03/2020 13:00;1;31;31;21.48;30.00
13/03/2020 13:30;1;49;49;22.20;35.00
13/03/2020 14:00;1;39;39;22.44;33.00
13/03/2020 14:30;1;40;40;22.80;36.00
13/03/2020 15:00;1;47;47;22.43;38.00
13/03/2020 15:30;1;52;52;23.75;40.00
13/03/2020 16:00;1;52;52;24.10;40.00
13/03/2020 16:30;1;63;63;24.70;38.00
13/03/2020 17:00;1;72;72;23.00;35.00
13/03/2020 17:30;1;60;60;22.82;38.00
13/03/2020 18:00;1;62;62;23.37;42.00
13/03/2020 18:30;1;50;50;23.32;33.00
13/03/2020 19:00;1;53;53;23.57;39.00
13/03/2020 19:30;1;39;39;24.64;36.00
13/03/2020 20:00;1;25;25;25.84;47.00
13/03/2020 20:30;1;28;28;25.71;42.00
13/03/2020 21:00;1;62;62;24.82;42.00
13/03/2020 21:30;1;38;38;26.39;40.00
13/03/2020 22:00;1;29;29;25.48;43.00
13/03/2020 22:30;1;32;32;25.84;41.00
13/03/2020 23:00;1;14;14;26.64;37.00
13/03/2020 23:30;1;19;19;24.00;39.00
14/03/2020 00:00;1;14;14;27.07;40.00
14/03/2020 00:30;1;8;8;31.00;51.00
14/03/2020 01:00;1;9;9;26.44;43.00
14/03/2020 01:30;1;7;7;28.86;40.00
14/03/2020 02:00;1;2;2;28.00;34.00
14/03/2020 02:30;1;7;7;27.71;35.00
14/03/2020 03:00;1;4;4;30.50;44.00
14/03/2020 03:30;1;5;5;28.20;37.00
14/03/2020 04:00;1;6;6;21.33;31.00
14/03/2020 04:30;1;7;7;38.00;62.00
14/03/2020 05:00;1;9;9;22.56;30.00
14/03/2020 05:30;1;10;10;25.60;33.00
14/03/2020 06:00;1;14;14;23.36;37.00
14/03/2020 06:30;1;12;12;28.00;44.00
14/03/2020 07:00;1;27;27;23.85;38.00
14/03/2020 07:30;1;27;27;24.59;42.00
14/03/2020 08:00;1;22;22;23.23;34.00
14/03/2020 08:30;1;49;49;22.37;35.00
14/03/2020 09:00;1;60;60;24.72;41.00
14/03/2020 09:30;1;52;52;24.63;38.00
14/03/2020 10:00;1;50;50;24.70;37.00
14/03/2020 10:30;1;71;71;23.90;42.00
14/03/2020 11:00;1;70;70;24.54;35.00
14/03/2020 11:30;1;65;65;23.22;34.00
14/03/2020 12:00;1;76;76;23.28;38.00
14/03/2020 12:30;1;68;68;24.63;39.00
14/03/2020 13:00;1;60;60;25.58;44.00
14/03/2020 13:30;1;77;77;24.55;38.00
14/03/2020 14:00;1;53;53;25.85;63.00
14/03/2020 14:30;1;60;60;24.07;39.00
14/03/2020 15:00;1;47;47;23.94;39.00
14/03/2020 15:30;1;46;46;25.07;38.00
14/03/2020 16:00;1;44;44;25.59;43.00
14/03/2020 16:30;1;46;46;23.24;32.00
14/03/2020 17:00;1;60;60;24.97;43.00
14/03/2020 17:30;1;50;50;24.98;39.00
14/03/2020 18:00;1;53;53;24.28;37.00
14/03/2020 18:30;1;50;50;24.86;38.00
14/03/2020 19:00;1;33;33;23.55;39.00
14/03/2020 19:30;1;39;39;24.74;45.00
14/03/2020 20:00;1;28;28;23.57;33.00
14/03/2020 20:30;1;22;22;23.18;34.00
14/03/2020 21:00;1;38;38;24.97;43.00
14/03/2020 21:30;1;32;32;24.78;40.00
14/03/2020 22:00;1;31;31;27.94;55.00
14/03/2020 22:30;1;23;23;25.87;34.00
14/03/2020 23:00;1;17;17;27.35;42.00
14/03/2020 23:30;1;13;13;26.62;36.00
15/03/2020 00:00;1;20;20;24.55;41.00
15/03/2020 00:30;1;6;6;22.50;37.00
15/03/2020 01:00;1;12;12;28.67;42.00
15/03/2020 01:30;1;9;9;26.78;38.00
15/03/2020 02:00;1;4;4;23.75;33.00
15/03/2020 02:30;1;6;6;26.50;33.00
15/03/2020 03:00;1;5;5;30.20;41.00
15/03/2020 03:30;1;2;2;36.00;42.00
15/03/2020 04:30;1;2;2;24.50;30.00
15/03/2020 05:00;1;5;5;20.60;24.00
15/03/2020 05:30;1;5;5;34.80;45.00
15/03/2020 06:00;1;10;10;27.60;38.00
15/03/2020 06:30;1;10;10;25.30;32.00
15/03/2020 07:00;1;10;10;25.70;35.00
15/03/2020 07:30;1;22;22;25.41;37.00
15/03/2020 08:00;1;17;17;25.12;37.00
15/03/2020 08:30;1;26;26;24.65;41.00
15/03/2020 09:00;1;19;19;28.68;44.00
15/03/2020 09:30;1;15;15;24.13;33.00
15/03/2020 10:00;1;29;29;24.38;33.00
15/03/2020 10:30;1;35;35;27.74;59.00
15/03/2020 11:00;1;36;36;24.78;48.00
15/03/2020 11:30;1;33;33;24.42;43.00
15/03/2020 12:00;1;34;34;26.21;43.00
15/03/2020 12:30;1;36;36;24.47;37.00
15/03/2020 13:00;1;34;34;27.15;40.00
15/03/2020 13:30;1;50;50;23.64;32.00
15/03/2020 14:00;1;36;36;26.00;40.00
15/03/2020 14:30;1;42;42;24.05;37.00
15/03/2020 15:00;1;30;30;26.40;40.00
15/03/2020 15:30;1;27;27;22.85;35.00
15/03/2020 16:00;1;22;22;25.59;43.00
15/03/2020 16:30;1;26;26;23.38;38.00
15/03/2020 17:00;1;29;29;25.31;43.00
15/03/2020 17:30;1;48;48;24.33;42.00
15/03/2020 18:00;1;32;32;24.56;40.00
15/03/2020 18:30;1;31;31;23.77;47.00
15/03/2020 19:00;1;23;23;25.39;41.00
15/03/2020 19:30;1;31;31;23.61;36.00
15/03/2020 20:00;1;19;19;25.68;43.00
15/03/2020 20:30;1;21;21;24.33;32.00
15/03/2020 21:00;1;15;15;24.60;37.00
15/03/2020 21:30;1;33;33;24.42;38.00
15/03/2020 22:00;1;10;10;31.30;47.00
15/03/2020 22:30;1;25;25;24.00;41.00
15/03/2020 23:00;1;5;5;34.20;46.00
15/03/2020 23:30;1;16;16;24.38;41.00
16/03/2020 00:00;1;7;7;29.86;50.00
16/03/2020 00:30;1;5;5;26.40;40.00
16/03/2020 01:00;1;6;6;31.00;39.00
16/03/2020 01:30;1;2;2;21.00;24.00
16/03/2020 02:00;1;4;4;37.50;49.00
16/03/2020 03:00;1;3;3;22.33;27.00
16/03/2020 03:30;1;2;2;22.50;24.00
16/03/2020 04:00;1;7;7;24.29;31.00
16/03/2020 04:30;1;10;10;25.90;36.00
16/03/2020 05:00;1;15;15;27.27;42.00
16/03/2020 05:30;1;33;33;26.30;39.00
16/03/2020 06:00;1;42;42;24.43;38.00
16/03/2020 06:30;1;29;29;22.72;33.00
16/03/2020 07:00;1;28;28;23.39;39.00
16/03/2020 07:30;1;32;32;22.28;37.00
16/03/2020 08:00;1;29;29;23.31;43.00
16/03/2020 08:30;1;40;40;22.65;38.00
16/03/2020 09:00;1;49;49;23.27;39.00
16/03/2020 09:30;1;33;33;22.39;37.00
16/03/2020 10:00;1;31;31;22.29;34.00
16/03/2020 10:30;1;42;42;23.21;38.00
16/03/2020 11:00;1;47;47;24.09;42.00
16/03/2020 11:30;1;38;38;23.58;34.00
16/03/2020 12:00;1;51;51;23.37;38.00
16/03/2020 12:30;1;56;56;24.52;43.00
16/03/2020 13:00;1;48;48;23.96;36.00
16/03/2020 13:30;1;33;33;25.12;38.00
16/03/2020 14:00;1;58;58;24.12;37.00
16/03/2020 14:30;1;37;37;25.05;43.00
16/03/2020 15:00;1;42;42;24.07;36.00
16/03/2020 15:30;1;47;47;24.47;36.00
16/03/2020 16:00;1;56;56;24.50;36.00
16/03/2020 16:30;1;60;60;25.25;37.00
16/03/2020 17:00;1;55;55;22.96;38.00
16/03/2020 17:30;1;55;55;23.15;49.00
16/03/2020 18:00;1;64;64;24.14;40.00
16/03/2020 18:30;1;62;62;23.16;36.00
16/03/2020 19:00;1;37;37;24.00;41.00
16/03/2020 19:30;1;34;34;25.97;50.00
16/03/2020 20:00;1;38;38;23.68;44.00
16/03/2020 20:30;1;18;18;23.22;34.00
16/03/2020 21:00;1;28;28;25.82;37.00
16/03/2020 21:30;1;20;20;25.40;61.00
16/03/2020 22:00;1;22;22;26.86;46.00
16/03/2020 22:30;1;17;17;24.29;33.00
16/03/2020 23:00;1;9;9;26.22;39.00
16/03/2020 23:30;1;14;14;24.36;37.00
17/03/2020 00:00;1;9;9;25.67;39.00
17/03/2020 00:30;1;6;6;38.17;48.00
17/03/2020 01:00;1;6;6;26.33;44.00
17/03/2020 01:30;1;2;2;26.00;26.00
17/03/2020 02:00;1;1;1;37.00;37.00
17/03/2020 02:30;1;2;2;31.00;37.00
17/03/2020 03:00;1;3;3;20.00;21.00
17/03/2020 03:30;1;1;1;18.00;18.00
17/03/2020 04:30;1;14;14;26.93;39.00
17/03/2020 05:00;1;21;21;25.43;38.00
17/03/2020 05:30;1;29;29;26.93;46.00
17/03/2020 06:00;1;34;34;25.15;41.00
17/03/2020 06:30;1;29;29;25.83;40.00
17/03/2020 07:00;1;29;29;21.62;41.00
17/03/2020 07:30;1;37;37;25.19;39.00